Flag for Canada Weather past 2 weeks in Dawson Creek, British Columbia, Canada

Now
63 °F

Scattered clouds.


Feels Like: 63 °F
Forecast: 56 / 68 °F
Wind: 8 mph from Southwest

Location: Dawson Creek Airport

Current Time: Jul 28, 2015 at 9:58:54 PM

Latest Report: Jul 28, 2015 at 9:00 PM


Visibility: 9 mi

Pressure: 30.00 "Hg (27.73 "Hg at 668m altitude)

Humidity: 56%

Dew point: 46 °F

Location of Dawson CreekLocation

Historic Weather in Dawson Creek — Graph

°F

Dawson Creek temperature yesterday

Maximum temperature yesterday: 73 °F (at 1:00 PM)
Minimum temperature yesterday: 52 °F (at 4:00 AM)
Average temperature yesterday: 63 °F

Past Weeks' High & Low Weather Summary

 TemperatureHumidityPressure
High82 °F (Jul 18, 6:00 PM)100% (Jul 20, 10:00 PM)30.12 "Hg (Jul 20, 10:00 PM)
Low46 °F (Jul 21, 3:00 AM)24% (Jul 17, 5:00 PM)29.67 "Hg (Jul 22, 3:00 AM)
Average62 °F60%29.86 "Hg
* Reported Jul 13 8:00 PM — Jul 28 8:00 PM, Dawson Creek, Weather by CustomWeather, © 2015

Note: Actual official high and low records may vary slightly from our data, if they occured in-between our weather recording intervals... More about our weather records

Advertising

Dawson Creek weather history for previous 24 hours

 ConditionsComfort  
Time TempWeatherWind HumidityBarometerVisibility
8:00 PM
Tue, Jul 28
66 °FPartly sunny.16 mph43%29.99 "Hg9 mi
7:00 PM66 °FScattered clouds.15 mph46%29.99 "Hg9 mi
6:00 PM70 °FBroken clouds.13 mph38%29.98 "Hg9 mi
5:00 PM70 °FPartly sunny.17 mph35%29.97 "Hg9 mi
4:00 PM72 °FSunny.18 mph33%29.97 "Hg9 mi
3:00 PM72 °FPassing clouds.20 mph33%29.97 "Hg9 mi
2:00 PM73 °FSunny.22 mph33%29.97 "Hg9 mi
1:00 PM72 °FScattered clouds.21 mph36%29.97 "Hg9 mi
12:00 PM72 °FScattered clouds.16 mph38%29.97 "Hg9 mi
11:00 AM70 °FSunny.24 mph38%29.98 "Hg9 mi
10:00 AM68 °FSunny.18 mph40%29.99 "Hg9 mi
9:00 AM64 °FSunny.22 mph49%30.00 "Hg9 mi
8:00 AM63 °FSunny.15 mph52%29.98 "Hg9 mi
7:00 AM59 °FSunny.13 mph59%29.98 "Hg9 mi
6:00 AM59 °FScattered clouds.15 mph59%29.97 "Hg9 mi
5:00 AM57 °FPassing clouds.9 mph63%29.95 "Hg9 mi
4:00 AM55 °FPassing clouds.2 mph67%29.95 "Hg9 mi
3:00 AM54 °FClear.No wind72%29.95 "Hg9 mi
2:00 AM54 °FPassing clouds.3 mph72%29.95 "Hg9 mi
1:00 AM59 °FPassing clouds.7 mph59%29.93 "Hg9 mi
12:00 AM61 °FPassing clouds.13 mph52%29.93 "Hg9 mi
11:00 PM
Mon, Jul 27
61 °FMostly cloudy.13 mph52%29.94 "Hg9 mi
10:00 PM61 °FSunny.13 mph52%29.95 "Hg9 mi
9:00 PM63 °FSunny.9 mph52%29.95 "Hg9 mi
Weather by CustomWeather, © 2015

See weather overviewHow to use our weather pages